FENGYUN 1C DEB

Satellite information

Favourite Embed

Satellite Type and Status

DEBRISIN ORBIT

Key statistics

Satellite FENGYUN 1C DEB at a glance.

Uptime

9494

Days in orbit

Revolutions

≈ 13.7

Per day

Orbit

SSO

Sun Synchronous Orbit

Inclination

98.7

Latest

Satellite identification and parameters

Extended collection of information and parameters for FENGYUN 1C DEB.

Object identification

Identified? True

Debris? True

Object name: FENGYUN 1C DEB

International designator: 1999-025YY

Object number (NORAD): 30287

Object ID (CCSDS): 30287

Country: PEOPLES REPUBLIC OF CHINA (PRC)

Current information (Y/N): Y

RCS size: SMALL

Orbital parameters

Period: 105.274 minutes

Inclination: 98.6575 deg

SMA: 7385.411 km

Apoapsis: 1313.958 km

Periapsis: 700.595 km

RAAN: 182.9575 deg

Eccentricy: 0.0415253

Argument of periapsis: 236.4031 deg

Mean anomaly: 282.109 deg

Mean motion: 13.67857123 rev/day

Mean motion (dot): 0.0000175 rev/day2

B* drag term: 0.0011572 1/REarth

Two-line elements (TLE)

Creation date: May 7, 2025, 3:14 a.m.

Reference frame: TEME

Reference center: EARTH

Epoch: May 6, 2025, 2:55 p.m. UTC

TLE line 0: 0 FENGYUN 1C DEB

TLE line 1: 1 30287U 99025YY 25126.62166545 .00001750 00000-0 11572-2 0 9997

TLE line 2: 2 30287 98.6575 182.9575 0415253 236.4031 282.1090 13.67857123908482

Live tracking on map

Real-time ground track for satellite FENGYUN 1C DEB.

In-orbit conjunctions

A list of the most updated potential collisions computed for object FENGYUN 1C DEB.

Target Orbit TCA Probability of collision Miss distance Type
SSD LEO 2024-09-24 19:22:38 0.0003610968 755.0 (m) PAYLOAD
COSMOS 1275 DEB LEO 2024-08-22 22:18:18 0.0001086158 182.0 (m) DEBRIS

Associated space launch

Chinese polar orbiting meteorological satellite

FENGYUN 1C DEB was lifted into orbit during the mission ‘Long March 4B | Feng Yun 1C’, on board a Long March 4B space rocket.

The launch took place on May 10, 1999, 1:33 a.m. from Launch Complex 7.

For more information about the launch, click the button.

Launch to space Long March 4B | Feng Yun 1C
Long March 4B | Feng Yun 1C

Agency: N/A

Status: Launch Successful

Launch date: May 10, 1999, 1:33 a.m. UTC

Rocket: Long March 4B

Launch pad: Launch Complex 7

Location: Taiyuan Satellite Launch Center, People's Republic of China

...

Latest news about this satellite

There are no fresh news available about this satellite. Check back as we update our databases every day.


Newsletter sign-up

Weekly statistics, charts and insights to help you stay on top of the space industry.